Regional Weather Roundup
Issued by NWS

Home | Current Version | Previous Version | Text Only | Print | Product List | Glossary On
Versions: 1 2 3 4 5 6 7 8 9 10 11 12 13 14 15 16 17 18 19 20 21 22 23 24 25 26 27 28 29 30 31 32 33 34 35 36 37 38 39 40 41 42 43 44 45 46 47 48 49 50
000
ASUS43 KOAX 250110
RWRNE

WEATHER ROUNDUP FOR NEBRASKA
NATIONAL WEATHER SERVICE OMAHA NE
800 PM CDT MON APR 24 2017

NOTES: SATELLITE DATA IS BEING USED TO AUGMENT CLOUD COVER ABOVE
       12000 FEET.
       "FAIR" INDICATES FEW OR NO CLOUDS BELOW 12,000 FEET WITH NO
       SIGNIFICANT WEATHER AND/OR OBSTRUCTIONS TO VISIBILITY.

  * THESE STATIONS DO NOT REPORT WEATHER SUCH AS RAIN...SNOW OR FOG.

NEZ001>004-019>022-054>056-250200-
NEBRASKA PANHANDLE

CITY           SKY/WX    TMP DP  RH WIND       PRES   REMARKS
SCOTTSBLUFF    LGT RAIN  57  37  47 N13       29.58S
ALLIANCE       CLOUDY    57  36  45 S5        29.57R
CHADRON        CLOUDY    58  42  55 NE9       29.55S
KIMBALL        CLOUDY    51  42  71 NW12      29.62F
SIDNEY         CLOUDY    59  34  39 NW14G23   29.59S
$$

NEZ057>060-069>072-079>082-250200-
SOUTHWEST NEBRASKA

CITY           SKY/WX    TMP DP  RH WIND       PRES   REMARKS
NORTH PLATTE   CLEAR     64  41  42 NE13      29.55R
IMPERIAL       CLOUDY    64  37  36 NE5       29.54F
LEXINGTON      CLEAR     64  42  44 NE8       29.56R
MCCOOK         CLOUDY    69  44  40 NE12      29.50F
OGALLALA       PTCLDY    67  30  25 E5        29.54S
$$

NEZ005>010-023>029-035>040-094-250200-
NORTH CENTRAL NEBRASKA

CITY           SKY/WX    TMP DP  RH WIND       PRES   REMARKS
VALENTINE      PTCLDY    56  40  55 N10       29.59F
AINSWORTH      MOCLDY    52  43  70 N12       29.60F
BROKEN BOW     CLOUDY    62  42  47 NE12      29.57R
O`NEILL        PTCLDY    53  39  58 NW13G18   29.59R
ORD            PTCLDY    59  41  51 NW13      29.55R
THEDFORD       CLOUDY    57  42  55 NE12      29.57F
$$

NEZ041-046>049-061>064-073>077-083>087-250200-
SOUTH CENTRAL NEBRASKA

CITY           SKY/WX    TMP DP  RH WIND       PRES   REMARKS
GRAND ISLAND   CLOUDY    68  43  40 N13       29.53R
AURORA         CLOUDY    68  41  37 N10       29.51S
HASTINGS       CLOUDY    69  41  36 NW13      29.53R
HEBRON         PTCLDY    70  48  46 S8        29.49R
HOLDREGE       CLEAR     67  41  38 N13       29.53S
KEARNEY *      CLEAR     66  43  42 N15       29.55R
YORK           PTCLDY    68  41  37 NW10      29.50R
$$

NEZ011>018-030>034-042>045-250200-
NORTHEAST NEBRASKA

CITY           SKY/WX    TMP DP  RH WIND       PRES   REMARKS
NORFOLK        CLOUDY    62  45  53 N9        29.51R
ALBION         CLOUDY    62  46  54 NW12G20   29.53R
BLAIR          PTCLDY    71  45  38 S13       29.51S
FREMONT        PTCLDY    69  45  41 S8        29.50S
TEKAMAH        MOCLDY    68  46  45 S14       29.49S
WAYNE          CLEAR     63  46  54 NW12G18   29.51R
$$

NEZ050>053-065>068-078-088>093-250200-
SOUTHEAST NEBRASKA

CITY           SKY/WX    TMP DP  RH WIND       PRES   REMARKS
LINCOLN        PTCLDY    68  48  48 S9        29.50S
OMAHA EPPLEY   MOCLDY    72  42  34 S12G22    29.51S
BEATRICE       PTCLDY    71  49  46 S10       29.50F
FALLS CITY     CLEAR     68  42  38 S14       29.54F
NEBRASKA CITY  MOCLDY    68  36  30 S12       29.53F
PLATTSMOUTH    CLOUDY    71  35  27 S13       29.53S
$$

NEZ044-045-051>053-067-250200-
OMAHA AREA

CITY           SKY/WX    TMP DP  RH WIND       PRES   REMARKS
OMAHA EPPLEY   MOCLDY    72  42  34 S12G22    29.51S
BLAIR          PTCLDY    71  45  38 S13       29.51S
FREMONT        PTCLDY    69  45  41 S8        29.50S
MILLARD        MOCLDY    74  48  39 S7        29.51S
OFFUTT AFB     CLOUDY    71  42  35 S12       29.51S
PLATTSMOUTH    CLOUDY    71  35  27 S13       29.53S
WAHOO          FAIR      68  45  42 S9        29.50S
$$



USA.gov is the U.S. government's official web portal to all federal, state and local government web resources and services.